Simultaneous Nadir Overpasses (SNOs) Predictions

Prediction of SNOs between GOES-15 and TERRA Satellite Orbit:

Table of predicted SNOs for the next 14.0 days since TLE Epoch: 2/11/2017
Index Date Time (GOES-15) GOES-15 Lat,Lon TERRA Lat,Lon Distance(km) Time Diff (sec)
1 02/12/2017 19:24:56 0.04,-135.39 -0.25,-134.06 152.19 80
2 02/13/2017 07:46:20 -0.04,-135.41 -0.86,-139.25 436.35 80
3 02/14/2017 19:12:44 0.04,-135.39 -0.85,-131.10 487.71 80
4 02/15/2017 07:34:09 -0.04,-135.41 -0.20,-136.30 100.97 80
5 02/17/2017 07:24:37 -0.04,-135.40 0.39,-133.34 233.96 80
6 02/17/2017 19:45:53 0.04,-135.38 0.68,-138.50 354.77 80
7 02/19/2017 19:33:41 0.03,-135.36 0.09,-135.54 20.84 80
8 02/21/2017 19:18:50 0.03,-135.34 -0.57,-132.59 312.49 80
9 02/22/2017 07:40:13 -0.03,-135.35 -0.54,-137.78 276.88 80
10 02/24/2017 07:30:43 -0.02,-135.32 0.11,-134.83 55.65 80




NCC Satellite Simultaneous Nadir Overpasses (SNOs) Prediction Service
